TimeEDT,TemperatureF,Dew PointF,Humidity,Sea Level PressureIn,VisibilityMPH,Wind Direction,Wind SpeedMPH,Gust SpeedMPH,PrecipitationIn,Events,Conditions,WindDirDegrees,DateUTC
12:56 AM,71.1,69.1,93,29.92,8.0,South,4.6,-,0.03,,Overcast,180,2013-08-27 04:56:00
1:56 AM,71.1,69.1,93,29.89,7.0,South,4.6,-,0.00,Rain,Light Rain,190,2013-08-27 05:56:00
2:56 AM,71.1,68.0,90,29.88,3.0,WSW,4.6,-,0.02,Rain,Rain,240,2013-08-27 06:56:00
3:03 AM,71.6,68.0,88,29.87,2.5,SW,3.5,-,0.00,Rain,Heavy Rain,220,2013-08-27 07:03:00
3:11 AM,71.6,68.0,88,29.87,5.0,SW,5.8,-,0.01,Rain,Light Rain,220,2013-08-27 07:11:00
3:56 AM,71.1,69.1,93,29.85,6.0,SSW,5.8,-,0.04,Rain,Light Rain,200,2013-08-27 07:56:00
4:56 AM,71.1,69.1,93,29.83,7.0,SW,8.1,-,0.03,,Overcast,230,2013-08-27 08:56:00
5:56 AM,71.1,69.1,93,29.82,6.0,SW,3.5,-,0.03,Rain,Light Rain,230,2013-08-27 09:56:00
6:56 AM,71.1,69.1,93,29.82,5.0,SW,4.6,-,0.00,,Overcast,230,2013-08-27 10:56:00
7:21 AM,71.6,69.8,94,29.82,6.0,WSW,4.6,-,N/A,,Overcast,240,2013-08-27 11:21:00
7:43 AM,71.6,69.8,94,29.83,5.0,Calm,Calm,-,N/A,,Overcast,0,2013-08-27 11:43:00
7:56 AM,72.0,70.0,93,29.83,5.0,Calm,Calm,-,N/A,,Overcast,0,2013-08-27 11:56:00
8:38 AM,71.6,69.8,94,29.83,5.0,WNW,3.5,-,N/A,,Overcast,290,2013-08-27 12:38:00
8:56 AM,72.0,69.1,91,29.83,5.0,North,8.1,-,N/A,,Overcast,350,2013-08-27 12:56:00
9:56 AM,71.1,69.1,93,29.84,10.0,North,8.1,-,0.00,,Overcast,350,2013-08-27 13:56:00
10:10 AM,71.6,69.8,94,29.85,10.0,North,10.4,-,N/A,,Overcast,350,2013-08-27 14:10:00
10:27 AM,71.6,69.8,94,29.85,10.0,North,9.2,-,N/A,,Overcast,350,2013-08-27 14:27:00
10:37 AM,71.6,69.8,94,29.85,10.0,North,10.4,-,N/A,,Overcast,360,2013-08-27 14:37:00
10:51 AM,71.6,69.8,94,29.85,10.0,North,9.2,-,N/A,,Overcast,360,2013-08-27 14:51:00
10:56 AM,72.0,69.1,91,29.85,10.0,North,9.2,-,N/A,,Overcast,350,2013-08-27 14:56:00
11:37 AM,75.2,69.8,83,29.85,10.0,North,11.5,20.7,N/A,,Overcast,360,2013-08-27 15:37:00
11:56 AM,75.0,69.1,82,29.85,10.0,North,11.5,-,N/A,,Overcast,350,2013-08-27 15:56:00
12:56 PM,78.1,70.0,76,29.85,10.0,North,15.0,20.7,N/A,,Mostly Cloudy,360,2013-08-27 16:56:00
1:56 PM,81.0,70.0,69,29.86,10.0,North,15.0,20.7,N/A,,Mostly Cloudy,350,2013-08-27 17:56:00
2:04 PM,80.6,69.8,70,29.86,10.0,North,15.0,21.9,N/A,,Scattered Clouds,350,2013-08-27 18:04:00
2:56 PM,82.0,69.1,65,29.84,10.0,North,12.7,17.3,N/A,,Partly Cloudy,360,2013-08-27 18:56:00
3:56 PM,82.9,69.1,63,29.84,10.0,North,12.7,18.4,N/A,,Clear,350,2013-08-27 19:56:00
4:56 PM,84.0,69.1,61,29.83,10.0,North,8.1,-,N/A,,Clear,360,2013-08-27 20:56:00
5:56 PM,82.9,69.1,63,29.85,10.0,NNW,5.8,-,N/A,,Scattered Clouds,340,2013-08-27 21:56:00
6:56 PM,73.9,66.9,79,29.86,10.0,SSE,6.9,-,N/A,,Mostly Cloudy,150,2013-08-27 22:56:00
7:56 PM,72.0,66.9,84,29.88,10.0,SE,3.5,-,N/A,,Clear,140,2013-08-27 23:56:00
8:56 PM,71.1,68.0,90,29.90,10.0,SSW,3.5,-,N/A,,Clear,200,2013-08-28 00:56:00
9:56 PM,71.1,68.0,90,29.90,10.0,South,4.6,-,N/A,,Partly Cloudy,190,2013-08-28 01:56:00
10:56 PM,69.1,68.0,96,29.92,9.0,Calm,Calm,-,N/A,,Clear,0,2013-08-28 02:56:00
11:56 PM,70.0,68.0,93,29.91,10.0,Calm,Calm,-,N/A,,Mostly Cloudy,0,2013-08-28 03:56:00